Location: Bosdarros
(43.2167°N, 0.3667°W)
Time: 03:03:55
(UTC+00:00)

ATLAS 5 CENTAUR R/B - Pass Details

Date: 22 April 2021
Orbit: 516 x 1141 km, 63.3° (Epoch: 02 May)

Event Time Altitude Azimuth Distance (km) Brightness Sun altitude
Rises 23:17:20 0° 331° (NNW) 3,136 6.1 -33.4°
Reaches altitude 10° 23:20:15 10° 349° (N) 2,329 5.3 -33.5°
Maximum altitude 23:24:06 19° 35° (NE) 1,906 4.4 -33.7°
Enters shadow 23:27:06 14° 69° (ENE) 2,321 4.5 -33.8°
